Tracking 31027 objects as of 19-Jul-2025
HD Live streaming from Space Station
objects crossing your sky now

COSMOS 574

Track COSMOS 574 now!
10-day predictions
COSMOS 574 is classified as:


NORAD ID: 6707
Int'l Code: 1973-042A
Perigee: 981.4 km
Apogee: 1,014.9 km
Inclination: 82.9 °
Period: 104.9 minutes
Semi major axis: 7369 km
RCS: 1.6655 m2 (large)
Launch date: June 20, 1973
Source: Commonwealth of Independent States (former USSR) (CIS)
Launch site: PLESETSK MISSILE AND SPACE COMPLEX (PKMTR)
Your satellite tracking list
SKOLTECH-B2
Track 1 satellite(s)




NASA's NSSDC Master Catalog

Two Line Element Set (TLE):
1 06707U 73042A   25199.63135207  .00000023  00000-0  82512-5 0  9997
2 06707  82.9483  79.4992 0022721  94.0940 295.2344 13.72383058 44924
Source of the keplerian elements: AFSPC